Weather History for KGNV - August, 2012

Change the Weather History Date:

Friday, August 17, 2012

  Actual Average Record
Temperature  
Mean Temperature 80 °F 81 °F  
Max Temperature 87 °F 90 °F 97 °F (1954)
Min Temperature 73 °F 72 °F 66 °F (1937)
Degree Days  
Heating Degree Days 0 0  
Month to date heating degree days 0 0  
Since 1 June heating degree days 0 0  
Since 1 July heating degree days 0 0  
Cooling Degree Days 15 16  
Month to date cooling degree days 288 272  
Year to date cooling degree days 2053 1723  
Since 1 June cooling degree days 1259 1213  
Growing Degree Days 28 (Base 50)    
Moisture  
Dew Point 73 °F    
Average Humidity 80    
Maximum Humidity 94    
Minimum Humidity 65    
Precipitation  
Precipitation 0.46 in 0.21 in 3.17 in (1968)
Month to date precipitation 3.18 3.49  
Year to date precipitation 35.34 32.67  
Snow  
Snow 0.00 in 0.00 in 0.00 in ()
Month to date snowfall 0.0 0.0  
Since 1 June snowfall 0.0 0.0  
Since 1 July snowfall 0.0 0.0  
Snow Depth 0.00 in    
Sea Level Pressure  
Sea Level Pressure 29.99 in    
Wind  
Wind Speed 4 mph (WSW)    
Max Wind Speed 24 mph    
Max Gust Speed 37 mph    
Visibility 8 miles    
Events Rain    
T = Trace of Precipitation, MM = Missing Value Source: NWS Daily Summary

Daily Weather History Graph

Daily Weather History Graph

Search for Another Location

Airport or City:

Trip Planner

Search our weather history database for the weather conditions in past years. The results will help you decide how hot, cold, wet, or windy it might be!

Date:

Astronomy

Aug. 17, 2012 Rise Set
Actual Time 6:58 AM EDT 8:07 PM EDT
Civil Twilight 6:33 AM EDT 8:32 PM EDT
Nautical Twilight 6:03 AM EDT 9:01 PM EDT
Astronomical Twilight 5:33 AM EDT 9:32 PM EDT
Moon 6:55 AM EDT (8/17) 7:57 PM EDT (8/17)
Length of Visible Light 13h 58m
Length of Day
13h 08m
New Moon, 0% of the Moon is Illuminated
Aug 17
New Moon
Aug 24
First Quarter
Aug 31
Full
Sep 8
Last Quarter
Sep 15
New

Hourly Weather History & Observations

Time (EDT) Temp. Heat Index Dew Point Humidity Pressure Visibility Wind Dir Wind Speed Gust Speed Precip Events Conditions
12:53 AM 75.9 °F - 73.9 °F 94% 30.02 in 10.0 mi Calm Calm - N/A   Clear
1:53 AM 75.9 °F - 73.9 °F 94% 30.02 in 10.0 mi Calm Calm - N/A   Clear
2:53 AM 75.0 °F - 73.0 °F 94% 30.01 in 10.0 mi WSW 3.5 mph - N/A   Clear
3:53 AM 75.0 °F - 73.9 °F 96% 29.99 in 10.0 mi WSW 3.5 mph - N/A   Clear
4:53 AM 75.0 °F - 73.0 °F 94% 29.99 in 10.0 mi Calm Calm - N/A   Clear
5:53 AM 75.0 °F - 73.0 °F 94% 29.99 in 9.0 mi Calm Calm - N/A   Scattered Clouds
6:12 AM 75.2 °F - 73.4 °F 94% 30.00 in 10.0 mi Calm Calm - N/A   Mostly Cloudy
6:37 AM 75.2 °F - 73.4 °F 94% 30.00 in 10.0 mi Calm Calm - N/A   Mostly Cloudy
6:53 AM 75.0 °F - 73.0 °F 94% 29.99 in 10.0 mi Calm Calm - N/A   Scattered Clouds
7:53 AM 77.0 °F - 75.0 °F 94% 30.00 in 10.0 mi Calm Calm - N/A   Partly Cloudy
8:53 AM 81.0 °F 87.3 °F 75.9 °F 85% 30.01 in 10.0 mi SW 3.5 mph - N/A   Partly Cloudy
9:24 AM 82.4 °F 89.5 °F 75.2 °F 79% 30.03 in 10.0 mi Calm Calm - N/A   Mostly Cloudy
9:53 AM 82.4 °F 89.5 °F 75.2 °F 79% 30.03 in 10.0 mi SSW 4.6 mph - N/A   Partly Cloudy
10:53 AM 84.2 °F 92.3 °F 75.2 °F 74% 30.02 in 10.0 mi West 5.8 mph - N/A   Scattered Clouds
11:46 AM 78.8 °F - 71.6 °F 78% 30.02 in 1.5 mi WSW 16.1 mph 23.0 mph 0.02 in Rain Heavy Rain
11:53 AM 77.0 °F - 70.0 °F 79% 30.02 in 0.8 mi SW 12.7 mph 23.0 mph 0.18 in Rain Rain
11:58 AM 77.0 °F - 71.6 °F 83% 30.02 in 2.0 mi West 10.4 mph - 0.02 in Rain Heavy Rain
12:05 PM 75.2 °F - 71.6 °F 89% 30.03 in 6.0 mi WSW 11.5 mph - 0.03 in Rain Light Rain
12:53 PM 75.0 °F - 71.1 °F 87% 30.04 in 6.0 mi WSW 16.1 mph 20.7 mph 0.04 in Rain Light Rain
1:03 PM 73.4 °F - 71.6 °F 94% 30.03 in 2.0 mi West 21.9 mph 36.8 mph 0.06 in Rain Rain
1:12 PM 73.4 °F - 71.6 °F 94% 30.02 in 4.0 mi WSW 12.7 mph 29.9 mph 0.09 in Rain Rain
1:53 PM 73.0 °F - 71.1 °F 93% 30.03 in 5.0 mi NNW 5.8 mph - 0.12 in Rain Rain
2:53 PM 75.9 °F - 73.0 °F 91% 29.97 in 10.0 mi Variable 4.6 mph - 0.12 in Rain Light Rain
3:53 PM 80.1 °F 83.8 °F 72.0 °F 76% 29.95 in 10.0 mi SW 3.5 mph - 0.00 in   Clear
4:53 PM 84.0 °F 89.6 °F 72.0 °F 67% 29.95 in 10.0 mi WSW 8.1 mph - N/A   Clear
5:53 PM 82.9 °F 88.8 °F 73.0 °F 72% 29.94 in 10.0 mi West 3.5 mph - N/A   Clear
6:53 PM 84.9 °F 91.4 °F 73.0 °F 67% 29.92 in 10.0 mi Variable 3.5 mph - N/A   Partly Cloudy
7:53 PM 82.9 °F 88.8 °F 73.0 °F 72% 29.94 in 10.0 mi WSW 5.8 mph - N/A   Partly Cloudy
8:26 PM 80.6 °F 85.4 °F 73.4 °F 79% 29.95 in 10.0 mi SW 4.6 mph - N/A   Partly Cloudy
8:53 PM 80.6 °F 85.4 °F 73.4 °F 79% 29.95 in 10.0 mi WSW 6.9 mph - N/A   Clear
9:53 PM 78.1 °F - 73.0 °F 84% 29.96 in 10.0 mi Calm Calm - N/A   Clear
10:53 PM 77.0 °F - 73.0 °F 88% 29.96 in 10.0 mi Calm Calm - N/A   Clear
11:53 PM 75.9 °F - 73.0 °F 91% 29.95 in 10.0 mi SW 3.5 mph - N/A   Clear